Location: Unspecified
(32.3530°N, 0.0000°E)
Time: 08:08:48
(UTC+00:00)

CSL-04 DEB - Visible Passes

Search period start: 04 April 2026 00:00
Search period end: 14 April 2026 00:00
Orbit: 719 x 1154 km, 98.7° (Epoch: 29 March)

Date Brightness Start Highest point End Pass type
(mag) Time Alt. Az. Time Alt. Az. Time Alt. Az.
4 Apr ? 22:05:35 10° NNE 22:07:20 20° NNE 22:07:20 20° NNE visible
4 Apr ? 23:50:30 10° NNW 23:51:09 11° NW 23:51:09 11° NW visible
5 Apr ? 22:18:54 10° N 22:21:00 22° N 22:21:00 22° N visible
6 Apr ? 22:32:17 10° N 22:34:40 23° N 22:34:40 23° N visible
7 Apr ? 21:04:00 10° NE 21:04:30 12° NE 21:04:30 12° NE visible
7 Apr ? 22:45:44 10° N 22:48:20 24° NNW 22:48:20 24° NNW visible
8 Apr ? 21:16:54 10° NNE 21:18:09 15° NE 21:18:09 15° NE visible
8 Apr ? 22:59:16 10° N 23:01:59 23° NNW 23:01:59 23° NNW visible
9 Apr ? 21:29:56 10° NNE 21:31:48 19° NNE 21:31:48 19° NNE visible
9 Apr ? 23:12:53 10° N 23:15:38 21° NNW 23:15:38 21° NNW visible
10 Apr ? 21:43:03 10° NNE 21:45:27 23° NNE 21:45:27 23° NNE visible
10 Apr ? 23:26:38 10° NNW 23:29:17 19° NW 23:29:17 19° NW visible
11 Apr ? 21:56:15 10° NNE 21:59:06 27° NNE 21:59:06 27° NNE visible
11 Apr ? 23:40:34 10° NNW 23:42:56 16° NW 23:42:56 16° NW visible
12 Apr ? 22:09:31 10° NNE 22:12:44 30° N 22:12:44 30° N visible
12 Apr ? 23:54:50 10° NW 23:56:34 13° NW 23:56:34 13° NW visible
13 Apr ? 20:42:26 10° NE 20:42:32 10° NE 20:42:32 10° NE visible
13 Apr ? 22:22:52 10° N 22:26:22 32° N 22:26:22 32° N visible
